TimeCDT,TemperatureF,Dew PointF,Humidity,Sea Level PressureIn,VisibilityMPH,Wind Direction,Wind SpeedMPH,Gust SpeedMPH,PrecipitationIn,Events,Conditions,WindDirDegrees,DateUTC
12:53 AM,61.0,55.9,83,30.17,10.0,Calm,Calm,-,N/A,,Mostly Cloudy,0,2013-05-26 05:53:00
1:53 AM,61.0,55.0,81,30.17,10.0,Calm,Calm,-,N/A,,Partly Cloudy,0,2013-05-26 06:53:00
2:53 AM,60.1,55.0,83,30.18,10.0,Calm,Calm,-,N/A,,Mostly Cloudy,0,2013-05-26 07:53:00
3:53 AM,60.1,54.0,80,30.17,10.0,Calm,Calm,-,N/A,,Clear,0,2013-05-26 08:53:00
4:53 AM,55.9,54.0,93,30.17,10.0,SE,3.5,-,N/A,,Clear,140,2013-05-26 09:53:00
5:53 AM,57.9,54.0,87,30.18,10.0,Calm,Calm,-,N/A,,Scattered Clouds,0,2013-05-26 10:53:00
6:53 AM,61.0,57.0,87,30.18,10.0,East,3.5,-,N/A,,Clear,100,2013-05-26 11:53:00
7:53 AM,64.9,55.9,73,30.18,10.0,East,5.8,-,N/A,,Clear,100,2013-05-26 12:53:00
8:53 AM,70.0,55.9,61,30.19,10.0,SSE,5.8,-,N/A,,Clear,150,2013-05-26 13:53:00
9:53 AM,73.0,57.0,57,30.19,10.0,SSE,5.8,-,N/A,,Clear,150,2013-05-26 14:53:00
10:53 AM,75.9,57.0,52,30.19,10.0,SSW,4.6,-,N/A,,Clear,200,2013-05-26 15:53:00
11:53 AM,78.1,57.9,50,30.19,10.0,SSW,8.1,-,N/A,,Scattered Clouds,210,2013-05-26 16:53:00
12:53 PM,80.1,57.9,47,30.18,10.0,South,6.9,-,N/A,,Scattered Clouds,170,2013-05-26 17:53:00
1:53 PM,80.1,57.9,47,30.15,10.0,South,3.5,-,N/A,,Mostly Cloudy,190,2013-05-26 18:53:00
2:53 PM,82.0,55.9,41,30.14,10.0,Variable,5.8,-,N/A,,Scattered Clouds,0,2013-05-26 19:53:00
3:53 PM,82.0,59.0,45,30.12,10.0,South,8.1,-,N/A,,Scattered Clouds,170,2013-05-26 20:53:00
4:53 PM,81.0,59.0,47,30.10,10.0,SSE,4.6,-,N/A,,Clear,160,2013-05-26 21:53:00
5:53 PM,80.1,59.0,48,30.08,10.0,South,9.2,-,N/A,,Clear,170,2013-05-26 22:53:00
6:53 PM,78.1,61.0,56,30.07,10.0,SSE,4.6,-,N/A,,Clear,160,2013-05-26 23:53:00
7:53 PM,73.9,61.0,64,30.08,10.0,SSE,4.6,-,N/A,,Clear,150,2013-05-27 00:53:00
8:53 PM,71.1,60.1,68,30.08,10.0,SSE,4.6,-,N/A,,Clear,150,2013-05-27 01:53:00
9:53 PM,69.1,59.0,70,30.08,10.0,South,5.8,-,N/A,,Clear,170,2013-05-27 02:53:00
10:53 PM,68.0,59.0,73,30.08,10.0,SSE,4.6,-,N/A,,Clear,160,2013-05-27 03:53:00
11:53 PM,66.0,59.0,78,30.07,10.0,SSE,4.6,-,N/A,,Clear,150,2013-05-27 04:53:00